カタログに戻る

VELOX-AM

Lost科学VLEO
NORAD 57482·PAYLOAD·🇸🇬 Singapore

打ち上げ Jul 30, 2023 から Satish Dhawan Space Centre

Loading…

次のパス (今後24時間)

TLE

古いSource: Space-Track

元期: Jan 10, 2024, 19:19 UTC

1 57482U 23109B   24010.80486117  .00011208  00000-0  52712-3 0  9995
2 57482   5.0045 110.9764 0011546 327.6281  32.3119 15.15302227 25000

AllMySatでVELOX-AMをリアルタイム追跡

Download on the App Store